This is the latest recevied weather packets stored in our database for station/object WC4PEM-9. If no packets are shown the sender has not sent any weather packets the latest 10 day(s).
| Time | Temp. | Humidity | Pressure | Rain* | Wind** | Luminosity | Snow |
|---|---|---|---|---|---|---|---|
| 1787789622 | 22.78° C | 95% | 1017.1 hPa | 29.21 mm | - | - | - |
| 1787789537 | 22.78° C | 95% | 1017.1 hPa | 29.21 mm | - | - | - |
| 1787789237 | 22.78° C | 95% | 1017.1 hPa | 30.99 mm | - | - | - |
| 1787789037 | 22.78° C | 95% | 1016.9 hPa | 33.02 mm | - | - | - |
| 1787788937 | 22.78° C | 95% | 1016.9 hPa | 33.02 mm | - | - | - |
| 1787788637 | 22.78° C | 95% | 1017 hPa | 35.31 mm | - | - | - |
| 1787788457 | 22.78° C | 95% | 1017.4 hPa | 37.59 mm | - | - | - |
| 1787788337 | 22.78° C | 95% | 1017.4 hPa | 37.59 mm | - | - | - |
| 1787788037 | 22.78° C | 95% | 1017.3 hPa | 40.13 mm | - | - | - |
| 1787787807 | 22.78° C | 95% | 1017 hPa | 41.66 mm | - | - | - |
| 1787787737 | 22.78° C | 95% | 1017 hPa | 41.66 mm | - | - | - |
| 1787787437 | 22.78° C | 95% | 1016.8 hPa | 42.93 mm | - | - | - |
| 1787787279 | 22.78° C | 95% | 1016.7 hPa | 43.18 mm | - | - | - |
| 1787787137 | 22.78° C | 95% | 1016.7 hPa | 43.18 mm | - | - | - |
| 1787786837 | 22.78° C | 95% | 1016.5 hPa | 41.66 mm | - | - | - |
| 1787786537 | 22.22° C | 95% | 1016.5 hPa | 38.61 mm | - | - | - |
| 1787786237 | 22.22° C | 95% | 1016.6 hPa | 35.56 mm | - | - | - |
| 1787786029 | 22.22° C | 94% | 1016.5 hPa | 32 mm | - | - | - |
| 1787785937 | 22.22° C | 94% | 1016.5 hPa | 32 mm | - | - | - |
| 1787785637 | 22.78° C | 94% | 1016.7 hPa | 28.7 mm | - | - | - |
| 1787785532 | 22.78° C | 94% | 1016.2 hPa | 24.89 mm | - | - | - |
| 1787785337 | 22.78° C | 94% | 1016.2 hPa | 24.89 mm | - | - | - |
| 1787785154 | 22.78° C | 94% | 1016.1 hPa | 20.83 mm | - | - | - |
| 1787785037 | 22.78° C | 94% | 1016.1 hPa | 20.83 mm | - | - | - |
| 1787784737 | 23.33° C | 93% | 1016.1 hPa | 16.51 mm | - | - | - |
* Rain latest hour (hover to see other rain measurements)
** Current wind speed in m/s (hover to see current wind gust speed)